Hourly Data Report for October 27, 2015

All times are specified in Local Standard Time (LST). Add 1 hour to adjust for Daylight Saving Time where and when it is observed.

CAPE DORSET A
NUNAVUT

64°13'49.000" N
76°31'30.000" W
48.20 m
2400637
71366
YTE

Download Data

Hourly Data (October 2015)
Hourly Data Report for October 27, 2015
Temp Definition
°C
Dew Point Temp Definition
°C
Rel Hum Definition
%
Wind Dir Definition
10's deg

Wind Spd Definition
km/h
Visibility Definition
km
Stn Press Definition
kPa
Hmdx Definition


Wind Chill Definition


Weather Definition


TIME
00:00 Legend Double Dagger -13.9 -15.9 85 28 21 16.1 98.81   -23 LegendNANA
01:00 Legend Double Dagger -13.9 -15.7 86 27 17 16.1 98.85   -22 LegendNANA
02:00 Legend Double Dagger -13.2 -16.3 78 22 11 16.1 98.90   -19 LegendNANA
03:00 Legend Double Dagger -13.4 -16.8 76 22 17 16.1 98.95   -21 LegendNANA
04:00 Legend Double Dagger -12.5 -17.1 69 29 13 16.1 98.97   -19 LegendNANA
05:00 Legend Double Dagger -12.0 -16.1 72 24 11 16.1 99.00   -18 LegendNANA
06:00 Legend Double Dagger -12.1 -15.0 79 25 11 16.1 99.05   -18 LegendNANA
07:00 Legend Double Dagger -11.3 -15.0 75 28 11 16.1 99.12   -17 LegendNANA
08:00 Legend Double Dagger -11.9 -14.7 80 25 5 16.1 99.17   -15 LegendNANA
09:00 Legend Double Dagger -12.1 -15.0 79 26 5 16.1 99.22   -15 LegendNANA
10:00 Legend Double Dagger -12.3 -14.9 81 LegendMM 4 16.1 99.28   -15 LegendNANA
11:00 Legend Double Dagger -12.7 -15.2 82 27 5 16.1 99.33   -16 Snow
12:00 Legend Double Dagger -11.4 -14.8 76 25 9 16.1 99.40   -17 LegendNANA
13:00 Legend Double Dagger -10.9 -14.3 76 23 9 16.1 99.45   -16 LegendNANA
14:00 Legend Double Dagger -10.8 -13.9 78 23 9 16.1 99.51   -16 LegendNANA
15:00 Legend Double Dagger -10.0 -14.0 73 23 8 16.1 99.58   -14 LegendNANA
16:00 Legend Double Dagger -10.9 -14.3 76 25 9 16.1 99.66   -16 LegendNANA
17:00 Legend Double Dagger -11.6 -14.9 77 25 5 16.1 99.74   -15 LegendNANA
18:00 Legend Double Dagger -11.1 -13.8 81 25 5 16.1 99.84   -14 LegendNANA
19:00 Legend Double Dagger -10.5 -14.3 74 LegendMM 4 16.1 99.90   -13 LegendNANA
20:00 Legend Double Dagger -10.3 -13.9 75   0 16.1 99.96     LegendNANA
21:00 Legend Double Dagger -10.3 -13.3 79 9 8 16.1 99.95   -15 Snow
22:00 Legend Double Dagger -9.0 -13.2 72 7 9 16.1 100.02   -14 Snow
23:00 Legend Double Dagger -9.1 -12.3 78 5 8 11.3 100.11   -13 Snow

Notes on Data Quality.

Legend

  • E = Estimated
  • M = Missing
  • NA = Not Available
  • ‡ = Partner data that is not subject to review by the National Climate Archives
Date modified: